RH
46 43 47 41 37 33 38 43 43 39 29 33 44 49 60 75 78 86 91 95 96 83 70 72 80 83 91 95 96 96 97 98 96 98 99 99 98 98 97 96 83 87 81 77
43 48 37 36 39 37 39 40 39 34 29 32 38 44 56 67 71 75 78 79 81 82 77 72 86 88 89 93 95 96 95 97 92 92 97 96 97 97 96 86 77 83 79 77
47 37 38 33 36 34 39 43 40 40 35 33 35 41 63 53 61 60 65 64 66 74 81 76 85 85 84 92 94 93 94 96 89 90 97 97 90 89 88 84 80 80 78 76
46 40 39 42 40 35 45 36 41 40 39 32 36 36 44 50 57 55 54 65 58 62 71 78 80 87 88 90 92 93 95 96 90 93 91 94 92 92 88 84 81 81 78 75
42 45 44 42 36 34 37 41 44 42 44 45 45 40 36 48 47 52 50 53 56 55 57 72 77 79 86 93 95 95 94 94 88 88 88 94 95 96 95 84 83 72 70 66
40 42 38 34 33 36 38 40 39 51 53 60 48 48 47 52 37 37 42 47 50 52 57 63 69 80 88 94 95 96 95 93 91 90 94 94 94 93 92 91 76 72 72 71
43 40 38 38 40 42 40 41 53 52 70 65 50 55 47 33 37 38 38 41 47 50 54 65 71 82 92 94 95 96 95 93 96 94 96 95 91 87 81 80 74 71 70 73
49 48 40 38 34 37 43 40 61 53 72 50 52 56 36 38 40 45 42 41 55 60 56 59 66 72 86 92 95 95 95 94 97 97 97 96 91 88 86 84 74 73 66 69
54 44 47 47 42 37 44 47 42 70 84 76 60 47 28 39 52 52 48 55 54 58 62 61 74 81 86 94 94 95 94 92 95 95 98 94 91 93 88 82 76 66 62 59
44 42 46 44 46 43 40 40 50 62 58 64 57 50 43 35 38 56 56 53 60 79 84 86 92 93 92 93 93 95 94 95 93 95 95 91 88 88 87 77 70 64 62 58
48 36 40 55 46 39 45 46 51 49 65 62 70 51 40 35 38 40 43 52 56 76 90 93 94 95 94 94 96 97 96 90 85 82 83 85 86 88 84 76 70 60 59 62
47 50 60 42 46 41 41 43 49 69 54 84 81 60 36 32 32 36 36 44 59 72 88 92 94 96 98 97 96 96 92 82 82 86 86 87 84 79 75 65 51 57 55 62
52 56 68 50 42 42 47 46 52 60 72 69 77 56 33 36 33 31 34 38 53 78 88 90 93 94 92 93 92 90 86 80 84 83 82 83 71 69 56 53 53 58 61 65
48 57 50 54 44 44 49 47 55 54 77 69 70 48 37 34 37 33 33 36 42 70 81 89 91 91 88 88 91 90 90 84 82 80 78 72 77 59 59 62 64 66 63 64
44 48 52 46 40 44 44 44 52 50 53 58 52 54 42 42 37 34 36 40 49 78 82 83 86 89 88 90 90 92 92 88 87 79 74 74 69 70 74 73 70 72 67 64
55 54 61 69 55 53 59 48 50 55 54 53 51 49 42 45 50 50 44 51 60 66 70 71 73 82 85 88 91 91 87 84 83 81 77 77 80 77 79 75 71 68 69 76
58 72 69 62 60 52 64 53 45 47 47 46 56 46 44 50 50 57 58 58 60 65 69 69 82 87 84 84 88 90 88 86 82 82 80 79 76 67 71 74 74 81 88 90
69 69 76 80 73 67 44 46 42 45 44 44 44 47 48 52 63 68 66 60 65 66 70 74 80 81 83 88 86 83 79 77 74 74 73 72 72 79 81 85 90 93 93 95
68 78 81 74 79 56 46 45 46 45 40 45 48 62 64 65 66 72 65 72 76 79 79 81 79 77 74 71 69 69 71 71 74 80 82 81 85 88 90 93 95 96 96 92
66 78 75 85 74 71 56 44 40 40 56 48 56 65 68 60 70 72 74 77 80 79 79 81 80 78 77 77 71 75 81 85 92 92 89 88 89 90 93 95 93 91 90 86
88 91 83 96 82 73 53 43 42 50 52 54 56 62 64 57 63 80 81 82 80 79 83 82 82 86 87 82 80 92 94 98 97 96 94 92 91 93 93 92 91 89 88 86
81 90 92 91 84 75 48 50 48 53 70 62 60 63 66 82 82 83 81 82 80 82 83 82 84 89 90 91 90 96 96 94 92 90 89 87 86 82 78 87 89 88 88 89
69 73 79 71 74 59 57 53 49 56 60 61 60 69 74 81 84 83 85 80 75 78 83 79 81 82 81 81 82 88 87 80 80 82 83 84 83 83 86 89 89 88 89 96
72 66 70 65 59 63 65 78 72 71 68 71 75 76 68 80 83 85 77 74 76 81 84 81 78 79 82 76 73 76 78 80 81 84 87 89 89 90 89 90 92 95 96 96
73 67 77 75 85 84 76 78 73 80 79 76 75 72 76 80 82 80 80 81 84 90 85 78 76 78 80 81 87 90 92 89 92 92 93 94 95 94 95 92 94 94 93 92
74 70 78 70 66 63 62 77 77 80 81 78 79 83 80 77 80 79 86 87 88 85 78 76 77 84 90 86 93 95 94 94 94 92 96 98 98 98 95 97 93 84 86 87
Wind_Speed
3 4 2 6 5 5 4 2 3 5 5 6 9 6 11 12 8 7 9 7 8 11 9 7 8 8 8 7 6 7 8 8 8 4 4 3 3 2 2 2 6 6 6 6
5 4 6 4 3 4 2 4 6 7 3 5 4 6 12 13 16 15 15 13 14 13 7 8 8 9 11 11 10 8 9 10 8 7 3 4 4 2 2 3 5 6 6 6
5 4 2 3 3 4 4 2 5 5 5 1 5 2 5 5 5 7 9 10 9 12 13 12 13 14 13 14 13 11 10 10 9 7 5 4 5 4 3 2 3 3 6 6
4 4 3 1 2 4 2 5 3 5 1 1 3 3 4 5 15 8 13 10 13 12 9 10 13 13 14 11 8 9 9 10 9 9 8 6 6 5 4 4 4 4 6 6
9 2 5 3 6 5 9 3 2 2 2 4 3 4 5 4 7 18 15 15 14 14 14 13 15 16 13 10 8 8 10 11 9 11 10 7 4 3 2 4 7 6 5 6
5 2 4 6 4 6 1 3 6 4 3 3 3 4 6 6 13 16 15 15 16 13 13 13 10 9 9 7 9 10 11 11 10 12 9 10 10 7 6 5 6 5 4 5
2 3 2 3 2 2 3 6 3 4 5 5 3 2 10 8 4 8 11 16 17 15 13 11 11 11 9 11 11 10 10 10 7 10 9 9 10 10 12 12 8 9 6 4
6 5 6 4 6 7 3 6 6 3 3 4 3 5 8 2 5 7 8 7 8 9 11 13 14 13 13 13 12 12 13 14 12 11 10 9 10 8 7 9 9 7 8 8
5 4 1 1 1 2 3 2 5 7 3 3 3 7 10 3 4 6 6 2 8 9 12 15 11 13 12 13 14 15 14 14 12 13 9 9 10 11 10 12 11 9 9 9
7 2 1 1 2 2 2 7 3 3 3 3 4 4 6 7 4 2 5 7 6 4 6 6 8 10 9 9 10 11 13 15 11 8 8 9 10 10 11 12 12 12 9 10
6 5 5 0 5 8 2 2 5 5 5 5 1 7 8 7 6 6 5 8 8 7 7 7 7 8 8 6 8 10 9 8 7 7 6 7 7 8 9 10 10 11 11 9
7 6 5 10 3 3 5 6 6 6 4 1 4 8 5 9 6 5 9 4 5 7 7 6 5 5 7 9 7 8 5 7 7 7 7 7 8 9 11 12 12 11 12 8
8 1 2 8 6 4 4 4 3 6 4 7 6 8 3 6 7 5 7 7 3 5 7 6 6 8 7 5 6 6 7 6 7 8 9 8 9 11 11 11 11 9 6 5
7 5 9 9 10 5 5 6 5 6 4 5 7 7 8 8 6 9 8 6 6 6 7 6 6 6 5 4 6 5 5 6 7 8 8 8 5 4 4 5 6 6 4 6
8 7 6 4 5 4 5 5 8 7 6 7 7 8 9 7 5 7 6 3 3 3 4 4 4 4 5 6 5 5 4 5 4 4 3 4 5 6 6 7 8 8 6 6
1 5 4 2 2 2 3 5 5 4 3 5 6 8 8 3 1 4 4 5 8 7 6 4 3 1 3 5 6 6 7 8 7 7 6 6 6 6 6 7 9 8 9 7
8 8 4 4 3 4 7 10 9 6 6 7 8 11 6 2 3 3 5 6 8 8 8 9 9 8 7 1 3 5 6 7 7 7 7 8 8 10 9 8 8 7 6 6
9 8 3 4 3 2 7 1 3 8 7 6 5 3 6 7 4 6 6 5 8 7 9 9 7 7 9 8 9 9 9 10 11 11 11 10 11 11 9 8 8 6 4 2
2 7 4 6 4 5 4 5 8 9 9 7 6 6 7 7 5 7 7 8 7 6 5 5 6 7 9 11 10 13 12 12 12 11 11 10 9 9 7 6 5 3 1 3
6 6 7 3 6 9 9 5 5 5 5 8 9 9 9 6 4 4 5 4 7 7 7 8 8 8 10 8 9 13 11 11 11 9 9 7 7 5 5 3 2 2 3 4
4 4 6 3 3 9 9 4 4 6 11 9 12 9 9 5 4 7 8 8 7 7 9 9 10 10 7 7 11 12 11 10 5 5 5 5 4 3 3 1 1 3 4 5
9 8 4 3 3 8 7 4 10 9 1 6 7 8 7 9 9 9 9 8 9 10 9 8 10 9 7 7 10 10 9 5 5 5 5 4 4 3 2 3 3 4 4 5
3 8 9 11 10 5 6 5 5 5 6 7 8 6 10 12 7 7 9 9 8 9 7 6 10 11 8 7 7 9 5 5 5 6 6 5 4 4 4 4 5 4 4 3
3 3 4 5 5 6 5 3 2 2 4 5 4 9 9 11 12 12 11 9 9 7 8 8 11 11 10 9 9 7 6 5 6 6 6 5 5 6 5 3 3 4 4 4
5 8 7 3 4 2 6 5 4 4 7 10 9 6 11 15 12 12 11 10 8 7 7 8 10 10 11 10 10 9 8 7 6 6 5 5 4 4 5 4 4 4 5 7
6 9 8 10 10 7 6 9 8 8 7 8 15 11 8 11 13 13 10 8 8 9 9 10 10 11 10 10 9 8 7 7 6 6 5 4 4 3 4 5 7 6 11 13
Wind_Direction
32 60 207 229 204 150 138 128 246 239 234 155 218 162 186 189 213 206 217 208 218 226 216 188 182 174 177 191 189 178 159 165 150 144 140 136 162 145 114 170 151 133 127 123
24 241 219 179 186 191 119 7 321 283 38 161 180 200 191 181 204 208 204 213 212 219 208 200 184 183 188 190 187 180 183 170 170 163 140 152 146 140 129 123 102 123 124 127
171 259 287 159 137 270 24 294 296 252 338 78 112 66 166 227 204 210 222 227 230 213 205 201 196 198 201 200 192 190 185 175 173 160 127 84 81 67 73 86 103 123 128 124
225 274 249 100 161 130 307 205 225 268 29 198 68 254 255 231 216 216 223 207 222 222 197 204 202 206 210 213 194 180 168 174 177 167 164 161 168 154 183 152 128 117 126 122
245 225 203 195 215 154 229 173 292 308 94 70 328 84 263 147 227 234 227 222 214 212 211 203 203 204 197 184 180 181 177 185 177 183 183 171 151 114 117 113 118 122 120 112
239 220 196 219 196 181 183 92 43 41 65 46 286 116 281 195 211 228 229 230 225 205 203 210 207 172 194 174 168 173 181 194 181 185 179 174 153 137 144 130 141 144 130 127
291 213 260 205 129 76 100 63 349 7 16 219 312 33 233 255 283 231 217 220 221 211 198 194 185 186 177 182 182 176 179 203 196 191 181 168 161 166 176 166 165 156 155 142
177 303 181 198 196 178 149 146 151 214 193 257 246 237 265 219 303 284 255 228 196 195 200 200 199 192 189 183 180 175 184 196 195 193 193 182 180 178 184 171 159 165 164 164
153 271 280 212 351 145 169 152 163 105 1 50 257 294 302 16 3 333 321 261 189 197 199 203 187 198 185 184 186 185 189 211 209 205 186 181 178 182 179 163 170 168 163 165
202 180 258 267 144 231 169 158 75 10 168 253 294 287 244 320 304 255 290 276 280 187 214 209 182 191 198 187 184 181 192 203 198 194 189 182 182 179 166 163 172 172 163 157
138 127 273 92 203 194 129 186 60 114 129 168 210 263 218 239 257 303 240 238 245 230 214 202 193 191 197 200 178 193 188 172 176 177 167 159 171 167 165 177 173 172 165 165
198 147 199 217 275 186 168 182 142 125 210 139 153 271 247 236 260 292 291 270 218 219 204 202 208 184 184 200 185 184 160 163 167 163 153 156 155 160 175 181 174 167 174 182
181 202 63 338 356 346 212 190 123 107 93 192 136 259 327 304 273 252 277 295 291 220 192 179 176 197 202 173 145 177 178 169 147 149 157 171 178 177 184 177 174 162 121 102
111 140 164 196 210 171 177 176 166 138 120 181 217 268 293 284 298 292 273 294 270 234 216 196 193 191 153 172 162 164 173 150 153 160 167 178 189 157 117 104 100 114 140 144
137 191 177 217 216 180 200 182 165 182 194 164 241 204 256 258 277 286 286 283 189 234 224 228 210 169 155 170 149 150 152 134 130 133 126 145 125 113 108 109 117 113 95 113
148 200 162 135 99 79 234 249 218 233 188 246 231 253 226 298 285 22 34 84 68 53 36 10 322 211 184 185 188 174 164 160 152 139 132 118 101 99 110 117 117 105 116 108
141 131 117 222 22 47 318 218 213 201 197 180 208 224 155 147 107 40 64 76 77 61 44 32 24 27 27 30 174 112 101 99 100 102 93 91 95 94 87 71 62 68 71 60
136 112 94 157 51 259 251 307 195 198 235 230 277 217 159 144 97 63 27 92 72 53 39 28 22 31 30 41 58 75 76 82 87 87 90 98 103 94 84 80 85 75 69 65
56 121 102 135 187 288 282 210 173 173 254 193 185 144 134 138 113 42 31 49 69 74 74 66 46 46 49 54 66 81 79 87 91 92 90 85 82 95 94 86 102 176 179 231
70 62 113 133 156 211 233 234 158 104 277 177 150 165 158 157 101 193 109 89 81 69 62 67 60 65 68 55 79 86 87 91 87 90 95 100 110 109 99 129 148 193 222 251
63 28 144 115 205 286 245 235 143 128 238 170 161 165 163 163 160 126 120 88 84 85 79 74 71 71 63 69 88 80 80 77 82 95 102 104 101 117 133 213 262 274 270 279
152 144 171 88 66 282 173 101 170 216 307 156 150 157 136 115 115 112 109 105 99 92 85 83 86 75 61 61 82 81 79 77 79 78 73 64 51 17 349 305 288 281 276 274
200 179 175 174 208 223 212 210 227 176 160 166 138 150 136 134 138 127 120 108 101 101 91 85 90 81 61 58 71 85 71 72 71 62 47 30 8 356 343 322 310 306 291 270
244 152 133 102 217 220 235 242 242 166 156 122 118 138 143 128 131 120 119 114 109 105 102 99 94 88 76 62 59 57 50 53 56 47 30 16 7 345 341 326 303 291 285 280
192 134 155 283 279 338 250 229 172 113 103 97 71 96 122 125 124 126 121 117 113 106 97 97 93 87 78 67 55 41 34 43 48 44 28 15 4 352 331 310 283 283 261 253
191 167 161 213 188 165 202 153 144 133 119 116 117 100 96 123 126 126 116 115 114 107 103 92 86 86 77 67 53 35 30 40 42 34 16 356 344 334 328 317 323 290 282 291